SL-19 R/B, 35501

Orbit data source: Space-Track

SL-19 R/B, 35501 is space debris in LEO originally from a launch on Mon, 06 Jul 2009 UTC launched from the Plesetsk Missile And Space Complex (PKMTR). Debris objects in space refer to the collection of defunct objects orbiting the Earth. Examples of debris include non-operational satellites, rocket bodies, and fragments generated from explosions, collisions, or faulty payload assembly.

Loading next visibility...
Identifier
35501, 2009-036D
Orbit
LEO
Country
Flag of CISCIS
Related business
Manufacturer
Khrunichev
Mission
Spacecraft
Bus & Motor
BRIZ, S5.92
Mass
2,370 kg wet, 2,370 kg dry
Launch date (UTC)
2009-07-06 (16 years ago)
Launch vehicle
Unknown
Launch site
Plesetsk Missile And Space Complex (PKMTR)
Object type
Payload
Rocket body
Debris
Shape & HBR
Hex Cyl + 1 Rod, 2.0 m
Radar Cross Section
10.190 m², Large (>1 m²)

Expand to show TLE details & history
Last TLE update: 20 hours ago

TLE from 20 hours ago
0 SL-19 R/B
1 35501U 09036D   25312.49972199  .00000027  00000-0  59301-4 0  9996
2 35501  82.4929 335.0421 0197244  84.8254  25.3164 12.76648320761640
Epoch: 2025-11-08T11:59Z
TLE epoch observation values (Epoch: 2025-11-08T11:59:35.979Z)
Latitude
67.71126°
Longitude
-91.44077°
Altitude
1,229.324 km
Speed
7.31 km/s
True Right ascension
09h 05m 33s
True Declination
67° 35' 52"
Sunlit
Object was in daylight at epoch
Visualization orbit readout
Latitude
Unknown
Longitude
Unknown
Altitude
Unknown
Speed
Unknown
Apparent Right ascension
Unknown
Apparent Declination
Unknown
Sunlit
N/A
Visualization observer readout
Local Sidereal Time
04:08:46
Azimuth
Unknown
Elevation
Unknown
Doppler factor
Unknown
Orbital elements
Apogee altitude
1,504.755 km
Perigee altitude
1,199.8 km
Semi-major axis
7,730.414 km
Eccentricity
0.01972
Inclination
82.4929°
RAAN
335.0421°
Arg. of periapsis
84.8254°
True anomaly
26.30488°
Mean anomaly
25.3164°
Eccentric anomaly
25.80841°
Mean motion
3.19329 °/min
Orbital period
112.74 mins
BSTAR
0.000059301
Loading maneuver chart data...
Computing Atmospheric mass density...
Loading historical data...
Loading historical data...
Loading historical data...
Loading historical data...
Loading historical data...
Loading historical data...
Loading historical data...
Other satellites on launch #36 in the year 2009 (2009-07-06 UTC)

Documentation

Showing up to 5 results
|